Location: Newark
(30.0333°N, 31.2167°E)
Time: 04:50:54
(UTC+00:00)

Tiros 1 despin weight - Pass Details

Date: 21 January 2020
Orbit: 594 x 642 km, 48.2° (Epoch: 18 February)

Event Time Altitude Azimuth Distance (km) Brightness Sun altitude
Rises 08:33:50 0° 198° (SSW) 2,833 ? 35.3°
Reaches altitude 10° 08:36:26 10° 184° (S) 1,941 ? 35.5°
Maximum altitude 08:40:02 24° 130° (SE) 1,264 ? 35.8°
Drops below altitude 10° 08:43:41 10° 76° (ENE) 1,973 ? 36.2°
Sets 08:46:20 0° 63° (ENE) 2,891 ? 36.4°
